シュワルツ彗星

C/2014 B1 ( Schwartz )

English version
Home page
Updated on May 21, 2018

---------------------------------------------------------------------

・ プロフィール

発見日 2014年1月28日
発見光度 19.9等
発見者 Michael Schwartz (Tenagra Observatory near Nogales, AZ, U.S.A.)

・ 写真集

・ 軌道要素

Epoch 2017 Sept. 4.0 TT = JDT 2458000.5
T 2017 Sept. 10.53513 TT                                MPCW
q   9.5565877            (2000.0)            P               Q
z  -0.0003922      Peri.  345.84171     -0.85029311     -0.50400199
 +/-0.0000007      Node   161.39562     +0.51719169     -0.85353239
e   1.0037477      Incl.   28.37228     +0.09754164     +0.13215317
From 716 observations 2014 Jan. 28-2018 Mar. 25, mean residual 0".4.

・ 光度変化

        m1 = -13.0 + 5 logΔ + 25 log r(t + 200)

---------------------------------------------------------------------

軌道要素はM.P.E.C. 2018-F152に掲載されたものです。
光度グラフはComet for Windowsで作成したものです。

---------------------------------------------------------------------

Copyright(C) Seiichi Yoshida (comet@aerith.net). All rights reserved.